Home > Weather > Wilmington > Past weeks

Flag for USA Past Weather in Wilmington, North Carolina, USA — Yesterday and Last 2 Weeks

Now
85 °F

Scattered clouds.


Feels Like: 92 °F
Forecast: 74 / 87 °F
Wind: 8 mph from Southeast

Location: New Hanover International Airport

Current Time: Jun 25, 2016 at 1:52:22 PM

Latest Report: Jun 25, 2016 at 12:53 PM


Visibility: 10 mi

Pressure: 30.06 "Hg

Humidity: 70%

Dew Point: 74 °F

Location of WilmingtonLocation

Past Weather in Wilmington — Graph

°F

Wilmington Temperature Yesterday

Maximum temperature yesterday: 88 °F (at 10:53 AM)
Minimum temperature yesterday: 73 °F (at 5:53 AM)
Average temperature yesterday: 79 °F

High & Low Weather Summary for the Past Weeks

 TemperatureHumidityPressure
High95 °F (Jun 12, 2:53 PM)97% (Jun 14, 10:53 PM)30.34 "Hg (Jun 14, 10:53 PM)
Low58 °F (Jun 20, 4:53 AM)26% (Jun 13, 2:53 PM)29.66 "Hg (Jun 17, 4:53 AM)
Average79 °F69%30.01 "Hg
* Reported Jun 10 12:53 PM — Jun 25 12:53 PM, Wilmington, Weather by CustomWeather, © 2016

Note: Actual official high and low records may vary slightly from our data, if they occured in-between our weather recording intervals... More about our weather records

Advertising

Wilmington Weather History for the Previous 24 Hours

Scroll right to see more
 ConditionsComfort  
Time TempWeatherWind HumidityBarometerVisibility
12:53 PM
Sat, Jun 25
85 °FScattered clouds.8 mph70%30.06 "Hg10 mi
11:53 AM86 °FPartly sunny.5 mph67%30.06 "Hg10 mi
10:53 AM86 °FPartly sunny.3 mph65%30.06 "Hg10 mi
9:53 AM84 °FSunny.3 mph70%30.06 "Hg10 mi
8:53 AM79 °FScattered clouds.No wind82%30.05 "Hg10 mi
7:53 AM76 °FPartly sunny.No wind88%30.05 "Hg10 mi
6:53 AM72 °FClear.No wind93%30.02 "Hg10 mi
5:53 AM70 °FClear.3 mph97%30.01 "Hg10 mi
4:53 AM71 °FClear.3 mph96%30.00 "Hg9 mi
3:53 AM71 °FClear.No wind93%30.00 "Hg10 mi
2:53 AM72 °FClear.3 mph93%29.99 "Hg10 mi
1:53 AM73 °FClear.5 mph90%30.00 "Hg10 mi
12:53 AM74 °FClear.6 mph88%30.00 "Hg10 mi
11:53 PM
Fri, Jun 24
73 °FClear.5 mph94%30.01 "Hg10 mi
10:53 PM75 °FClear.No wind90%30.01 "Hg10 mi
9:53 PM77 °FClear.8 mph88%30.01 "Hg10 mi
8:53 PM77 °FSunny.3 mph94%29.98 "Hg9 mi
7:53 PM79 °FPassing clouds.10 mph88%29.98 "Hg9 mi
6:53 PM79 °FLight rain. Broken clouds.7 mph84%29.98 "Hg10 mi
5:53 PM82 °FThunderstorms. Sunny.8 mph70%29.96 "Hg10 mi
4:53 PM84 °FSunny.7 mph67%29.95 "Hg10 mi
4:00 PM79 °FThundershowers. Passing clouds.3 mph74%29.99 "Hg10 mi
2:53 PM79 °FLight rain. Partly sunny.6 mph82%30.01 "Hg9 mi
1:53 PM82 °FPassing clouds.9 mph74%30.00 "Hg10 mi
Weather by CustomWeather, © 2016

See weather overviewHow to use our weather pages